sat.trackr.live / text

‹ back to catalog

STARLINK-35766

NORAD 67181 · 2025-303U

PAYLOAD ACTIVE UNKNOWN

§ Identity

Operator
Country
US
Launch date
2025-12-17
Launch site
AFETR
Launch vehicle
Mass (kg)
RCS (m²)

Purposes: comms

External: N2YO · Heavens-Above · Gunter

§ Orbital elements

Epoch: 2026-05-25T05:32:08.471904Z

Period
94.27 min
Inclination
43.0007°
Eccentricity
0.0002009
Mean motion
15.27576592 rev/d
Perigee alt
481.7 km
Apogee alt
484.4 km
Semi-major
6,861.2 km
B*
4.3449e-4
RAAN
238.2288°
Arg perigee
266.3429°
Mean anomaly
93.7193°
Rev number
2,444

§ Raw data

STARLINK-357661 67181U 25303U   26145.23065361  .00011712  00000+0  43449-3 0  99982 67181  43.0007 238.2288 0002009 266.3429  93.7193 15.27576592 24440

JSON: /api/v1/satellites/67181 · /tle

For live sub-satellite position, see the globe view (requires WebGL).

§ Visibility from observer

Set your observer location to see the next 7 days of passes ≥ 10°. The values pass through the URL so the page stays shareable.

No JS? Fill the form by hand. The geolocation button needs JavaScript.